Meath Environmental Platform

Observations for Trim Patrick St

Time AQI Temp °C Hum % Pres Pa CO μg/m³ H₂S μg/m³ NO μg/m³ NO₂ μg/m³ O₃ μg/m³ SO₂ μg/m³ PM1 μg/m³ PM2.5 μg/m³ PM10 μg/m³
Friday 31 July 2026
23:28 2 14.9 65 75,143 0.12 4.52 2.12 23.96 48.12 0 2.86 6.94 7.63
23:27 2 14.9 65 75,118 0.11 4.16 2.39 11.55 47.02 0 2.86 6.19 6.81
23:26 2 14.9 65 75,104 0.12 5.02 2.42 23 51.25 0 2.86 6.94 7.64
23:25 2 14.9 65 75,071 0.11 4.24 2.64 13.6 49.7 0 2.86 6.94 7.63
23:24 2 14.9 65 75,045 0.11 4.73 3.05 14.23 48.57 0 2 6.21 6.83
23:23 2 15 65 75,015 0.11 5.07 2.98 17.09 54.27 0 2 6.22 6.85
23:22 2 15 63 74,972 0.12 5.7 2.61 20.69 45.68 0 2 6.32 6.95
23:21 2 15 64 74,927 0.12 4.73 2.78 15.79 50.1 0 2 6.98 7.68
23:20 2 15 64 74,899 0.12 5.57 2.37 18.63 49.04 0 2.86 6.28 6.9
23:19 2 15.1 64 74,862 0.11 4.81 2.34 19.45 48.97 0 2 6.28 6.9
23:18 2 15.1 64 74,825 0.11 5.49 2.14 17.67 51.05 0 2 7.02 7.72
23:17 2 15.1 62 74,791 0.12 5.67 1.98 19.39 39.7 0 2 6.4 7.04
23:16 2 15.1 64 74,748 0.12 5.98 2.7 24.61 49.52 0 2 6.25 6.88
23:15 2 15.2 65 74,713 0.11 5.49 2.95 19.6 51.41 0 2 6.22 6.85
23:14 2 15.2 64 74,683 0.11 5.75 2.83 20.41 45.98 0 2 6.98 7.68
23:11 2 15.2 64 74,601 0.12 5.54 2.59 20.02 49 0 2.86 7.7 8.47
23:10 2 15.2 64 74,575 0.11 6.56 2.4 25.05 50.24 0 2.86 6.97 7.67
23:09 2 15.2 64 74,552 0.12 6.22 2.35 16.44 49.38 0 3.71 7.71 8.48
23:04 3 15.3 64 74,475 0.1 6.51 2.63 23.04 48.07 0 2 6.26 6.88
23:03 3 15.3 64 74,442 0.11 7 2.6 27.63 51.52 0 2 6.27 6.9